Volver al catálogo

SL-14 DEB

ActivoPO
NORAD 19144·DEBRIS·🇷🇺 Russia

Lanzado Oct 26, 1978 desde Plesetsk Cosmodrome

Loading…

Próximos Pases (próximas 24 horas)

TLE

ActualizadoSource: Space-Track

Época: Sep 14, 2026, 12:53 UTC

1 19144U 78100Q   26257.53690141  .00000064  00000-0  77703-3 0  9993
2 19144  82.6205 183.0418 0048460 286.7962 196.5287 11.89735893663996

Sigue SL-14 DEB en tiempo real con AllMySat

Download on the App Store